TimeMDT,TemperatureF,Dew PointF,Humidity,Sea Level PressureIn,VisibilityMPH,Wind Direction,Wind SpeedMPH,Gust SpeedMPH,PrecipitationIn,Events,Conditions,WindDirDegrees,DateUTC
12:53 AM,30.0,21.0,69,29.99,10.0,East,3.5,-,N/A,,Clear,80,2013-10-18 06:53:00
1:53 AM,30.0,21.0,69,30.00,10.0,East,5.8,-,N/A,,Clear,100,2013-10-18 07:53:00
2:53 AM,28.0,19.9,72,30.03,10.0,NE,5.8,-,N/A,,Clear,50,2013-10-18 08:53:00
3:53 AM,27.0,19.0,72,30.02,10.0,ENE,3.5,-,N/A,,Clear,70,2013-10-18 09:53:00
4:53 AM,26.1,19.0,75,30.04,10.0,ENE,5.8,-,N/A,,Clear,70,2013-10-18 10:53:00
5:53 AM,25.0,19.0,78,30.05,10.0,NE,8.1,-,N/A,,Clear,50,2013-10-18 11:53:00
6:53 AM,25.0,19.0,78,30.10,10.0,NE,9.2,-,N/A,,Clear,50,2013-10-18 12:53:00
7:53 AM,30.9,21.0,67,30.12,10.0,East,8.1,-,N/A,,Clear,90,2013-10-18 13:53:00
8:53 AM,39.0,23.0,53,30.13,10.0,ENE,3.5,-,N/A,,Clear,60,2013-10-18 14:53:00
9:53 AM,48.9,19.9,32,30.11,10.0,North,11.5,17.3,N/A,,Clear,360,2013-10-18 15:53:00
10:53 AM,51.1,17.1,26,30.12,10.0,North,17.3,24.2,N/A,,Clear,350,2013-10-18 16:53:00
11:53 AM,52.0,14.0,22,30.12,10.0,North,18.4,27.6,N/A,,Clear,350,2013-10-18 17:53:00
12:53 PM,53.1,14.0,21,30.11,10.0,NNW,17.3,26.5,N/A,,Clear,340,2013-10-18 18:53:00
1:53 PM,55.0,12.9,19,30.09,10.0,NNW,19.6,26.5,N/A,,Clear,340,2013-10-18 19:53:00
2:53 PM,55.0,10.0,17,30.09,10.0,NNW,15.0,24.2,N/A,,Clear,330,2013-10-18 20:53:00
3:53 PM,55.0,8.1,15,30.10,10.0,NNW,15.0,25.3,N/A,,Clear,340,2013-10-18 21:53:00
4:53 PM,54.0,7.0,15,30.12,10.0,NNW,12.7,-,N/A,,Clear,330,2013-10-18 22:53:00
5:53 PM,53.1,5.0,14,30.14,10.0,NNW,13.8,-,N/A,,Clear,340,2013-10-18 23:53:00
6:53 PM,46.0,10.9,24,30.18,10.0,NNW,4.6,-,N/A,,Clear,340,2013-10-19 00:53:00
7:53 PM,43.0,14.0,31,30.19,10.0,North,6.9,-,N/A,,Clear,360,2013-10-19 01:53:00
8:53 PM,42.1,17.1,37,30.18,10.0,SE,4.6,-,N/A,,Clear,140,2013-10-19 02:53:00
9:53 PM,34.0,19.0,54,30.19,10.0,NNE,6.9,-,N/A,,Clear,30,2013-10-19 03:53:00
10:53 PM,30.9,18.0,59,30.20,10.0,NE,8.1,-,N/A,,Clear,40,2013-10-19 04:53:00
11:53 PM,30.0,17.1,59,30.20,10.0,East,5.8,-,N/A,,Clear,90,2013-10-19 05:53:00